ZHONGXING-6B

Last updated on Nov. 18, 2019, 4:21 a.m. UTC

1 31800U 07031A   19321.17146722 -.00000353  00000-0  00000+0 0  9990
2 31800   0.0159 293.0155 0005049 305.2858 354.9241  1.00269994 45369
UTC
Height (km)
Latitude
Longitude
Inclination
Orbital Period
UTC large
Height (km)
Speed (km/s)
/
Latitude / Longitude
Inclination (degrees)
Orbital Period (minutes)
Azimuth
Elevation
Range (km)
Doppler Factor
iOS Compass Heading
iOS Angle

Next 30 passes for location: Hong Kong

Rise time Rise Azimuth (degrees) Set time Set Azimuth (degrees) Duration Max altitude (degrees)

No matching passes for this satellites